Left ArrowRight Arrow

40.92501, -98.34201

Hourly Observations for June 21, 2024

Temp ( °F °C ) Dew Point ( °F °C ) Humidity (%) Winds ( mph kmh ) Pressure ( in mb ) Visibility ( mi km ) Precip ( " mm )
12:53 am 00:53 Clear 74 23.3 68 20 82 82 S 8 13 30.12 1020 10 16 0.00 0.00
1:53 am 01:53 Clear 74 23.3 68 20 82 82 S 9 15 30.12 1020 10 16 0.00 0.00
2:53 am 02:53 Mostly Clear 72 22.2 67 19.4 84 84 S 8 13 30.11 1020 10 16 0.00 0.00
3:53 am 03:53 Cloudy 73 22.8 67 19.4 81 81 S 9 15 30.09 1019 10 16 0.00 0.00
4:53 am 04:53 Mostly Cloudy 72 22.2 67 19.4 84 84 S 10 17 30.08 1019 10 16 0.00 0.00
5:53 am 05:53 Clear 71 21.7 66 18.9 84 84 S 12 19 30.07 1018 10 16 0.00 0.00
6:53 am 06:53 Sunny 71 21.7 67 19.4 87 87 S 9 15 30.07 1018 10 16 0.00 0.00
7:53 am 07:53 Sunny 74 23.3 67 19.4 79 79 S 12 19 30.08 1019 10 16 0.00 0.00
8:53 am 08:53 Sunny 78 25.6 68 20 71 71 S 14 22 30.07 1018 10 16 0.00 0.00
9:53 am 09:53 Sunny 81 27.2 69 20.6 67 67 S 15 24 30.05 1018 10 16 0.00 0.00
10:53 am 10:53 Sunny 83 28.3 69 20.6 63 63 S 17 28 30.03 1017 10 16 0.00 0.00
11:53 am 11:53 Mostly Sunny 85 29.4 70 21.1 61 61 S 17 28 30.01 1016 10 16 0.00 0.00
12:53 pm 12:53 Sunny 87 30.6 70 21.1 57 57 S 21 33 29.99 1016 10 16 0.00 0.00
1:53 pm 13:53 Mostly Sunny 89 31.7 71 21.7 56 56 S 20 31 29.97 1015 10 16 0.00 0.00
2:53 pm 14:53 Partly Cloudy 89 31.7 69 20.6 52 52 S 17 28 29.95 1014 10 16 0.00 0.00
3:53 pm 15:53 Partly Cloudy 90 32.2 68 20 49 49 S 18 30 29.93 1014 10 16 0.00 0.00
4:53 pm 16:53 Mostly Cloudy 89 31.7 68 20 50 50 S 20 31 29.90 1013 10 16 0.00 0.00
5:53 pm 17:53 Mostly Sunny 88 31.1 68 20 52 52 S 22 35 29.87 1011 10 16 0.00 0.00
6:53 pm 18:53 Sunny 87 30.6 68 20 53 53 SSE 16 26 29.85 1011 10 16 0.00 0.00
7:53 pm 19:53 Cloudy 86 30 68 20 55 55 SSE 14 22 29.82 1010 10 16 0.00 0.00
8:53 pm 20:53 Partly Cloudy 84 28.9 68 20 59 59 S 10 17 29.81 1010 10 16 0.00 0.00
9:24 pm 21:24 Cloudy with Nearby Thunderstorms 75 23.9 69 20.6 82 82 NNE 10 17 29.81 1009 10 16 0.00 0.00
9:39 pm 21:39 Cloudy 75 23.9 68 20 79 79 N 18 30 29.80 1009 10 16 0.00 0.00
9:53 pm 21:53 Cloudy with Nearby Thunderstorms 74 23.3 69 20.6 85 85 NE 15 24 29.82 1010 10 16 0.00 0.00
10:18 pm 22:18 Cloudy with Nearby Thunderstorms 72 22.2 69 20.6 91 91 N 21 33 29.86 1011 10 16 0.00 0.00
10:53 pm 22:53 Cloudy with Nearby Thunderstorms 72 22.2 69 20.6 91 91 NNE 9 15 29.91 1013 10 16 0.00 0.00
11:13 pm 23:13 Cloudy with Thunderstorms 71 21.7 69 20.6 93 93 N 21 33 29.88 1012 4 6 0.01 0.13
11:22 pm 23:22 Cloudy with Strong Thunderstorms 70 21.1 68 20 93 93 N 13 20 29.87 1012 2 3 0.14 3.56

Powered by Vaisala Xweather